Hoquiam, WA

7:39 PM PDT on September 19, 2017 (GMT -0700)
Bowerman

Weather History for KHQM - April, 2013

Change the Weather History Date:

Monday, April 15, 2013

  Actual Average Record
Temperature  
Mean Temperature 43 °F 49 °F  
Max Temperature 54 °F 55 °F 75 °F (1999)
Min Temperature 32 °F 42 °F 32 °F (2013)
Degree Days  
Heating Degree Days 22 16  
Month to date heating degree days 257 257  
Cooling Degree Days 0 0  
Month to date cooling degree days 0 0  
Year to date cooling degree days 0 0  
Moisture  
Dew Point 38 °F    
Average Humidity 80    
Maximum Humidity 100    
Minimum Humidity 59    
Precipitation  
Precipitation T in 0.17 in 1.26 in (2005)
Month to date precipitation 4.98 2.80  
Year to date precipitation 23.90 27.33  
Sea Level Pressure  
Sea Level Pressure 30.05 in    
Wind  
Wind Speed 6 mph (NNE)    
Max Wind Speed 20 mph    
Max Gust Speed 23 mph    
Visibility 10 miles    
Events Rain    
T = Trace of Precipitation, MM = Missing Value Source: NWS Daily Summary

Daily Weather History Graph

Daily Weather History Graph

Search for Another Location

Airport or City:

Trip Planner

Search our weather history database for the weather conditions in past years. The results will help you decide how hot, cold, wet, or windy it might be!

Date:

Astronomy

Apr. 15, 2013 Rise Set
Actual Time 6:27 AM PDT 8:04 PM PDT
Civil Twilight 5:55 AM PDT 8:36 PM PDT
Nautical Twilight 5:16 AM PDT 9:16 PM PDT
Astronomical Twilight 4:34 AM PDT 9:58 PM PDT
Moon 9:47 AM PDT (4/15) 12:32 AM PDT (4/15)
Length of Visible Light 14h 41m
Length of Day
13h 37m
Waxing Crescent, 25% of the Moon is Illuminated
Apr 15
Waxing Crescent
Apr 18
First Quarter
Apr 25
Full
May 2
Last Quarter
May 9
New

Hourly Weather History & Observations

Time (PDT) Temp. Windchill Dew Point Humidity Pressure Visibility Wind Dir Wind Speed Gust Speed Precip Events Conditions
12:53 AM 39.0 °F - 36.0 °F 89% 29.97 in 10.0 mi Calm Calm - N/A   Clear
1:53 AM 37.9 °F 34.4 °F 36.0 °F 93% 29.97 in 10.0 mi NE 4.6 mph - N/A   Mostly Cloudy
2:53 AM 37.0 °F 33.3 °F 35.1 °F 93% 29.96 in 10.0 mi NE 4.6 mph - N/A   Clear
3:53 AM 34.0 °F - 34.0 °F 100% 29.96 in 10.0 mi Calm Calm - N/A   Clear
4:53 AM 34.0 °F - 32.0 °F 92% 29.98 in 10.0 mi Calm Calm - N/A   Clear
5:53 AM 33.1 °F 28.7 °F 32.0 °F 96% 29.98 in 10.0 mi NE 4.6 mph - N/A   Clear
6:44 AM 32.0 °F 27.5 °F 30.2 °F 93% 29.97 in 10.0 mi NE 4.6 mph - N/A   Partly Cloudy
6:53 AM 32.0 °F 28.7 °F 32.0 °F 100% 29.99 in 10.0 mi NE 3.5 mph - N/A   Clear
7:53 AM 34.0 °F 28.0 °F 33.1 °F 96% 30.01 in 6.0 mi NE 6.9 mph - N/A   Partly Cloudy
8:46 AM 37.4 °F 33.8 °F 35.6 °F 93% 30.02 in 10.0 mi NNE 4.6 mph - N/A   Mostly Cloudy
8:53 AM 37.0 °F 32.4 °F 35.1 °F 93% 30.03 in 10.0 mi NNE 5.8 mph - N/A   Mostly Cloudy
9:24 AM 39.2 °F 35.0 °F 37.4 °F 93% 30.02 in 10.0 mi NE 5.8 mph - N/A   Scattered Clouds
9:53 AM 42.1 °F 38.4 °F 37.9 °F 85% 30.04 in 10.0 mi North 5.8 mph - N/A   Partly Cloudy
10:25 AM 44.6 °F 41.4 °F 39.2 °F 81% 30.04 in 10.0 mi Variable 5.8 mph - N/A   Mostly Cloudy
10:37 AM 44.6 °F 42.2 °F 39.2 °F 81% 30.04 in 10.0 mi ENE 4.6 mph - N/A   Scattered Clouds
10:53 AM 46.0 °F 43.9 °F 39.9 °F 79% 30.05 in 10.0 mi ENE 4.6 mph - N/A   Clear
11:53 AM 48.9 °F - 39.0 °F 69% 30.06 in 10.0 mi ESE 4.6 mph - N/A   Clear
12:53 PM 52.0 °F - 37.9 °F 59% 30.06 in 10.0 mi SSE 4.6 mph - N/A   Clear
1:53 PM 52.0 °F - 39.9 °F 63% 30.07 in 10.0 mi WSW 10.4 mph - N/A   Overcast
2:53 PM 53.1 °F - 39.9 °F 61% 30.09 in 10.0 mi West 11.5 mph - 0.00 in   Scattered Clouds
3:53 PM 53.1 °F - 39.9 °F 61% 30.09 in 10.0 mi West 12.7 mph - 0.00 in Rain Light Rain
4:53 PM 53.1 °F - 41.0 °F 64% 30.09 in 10.0 mi West 13.8 mph - N/A   Partly Cloudy
5:53 PM 52.0 °F - 42.1 °F 69% 30.11 in 10.0 mi West 13.8 mph - N/A   Partly Cloudy
6:53 PM 51.1 °F - 39.9 °F 66% 30.12 in 10.0 mi West 13.8 mph - N/A   Scattered Clouds
7:53 PM 50.0 °F - 41.0 °F 71% 30.14 in 10.0 mi WSW 4.6 mph - N/A   Partly Cloudy
8:53 PM 48.0 °F - 42.1 °F 80% 30.16 in 10.0 mi West 4.6 mph - N/A   Clear
9:53 PM 45.0 °F 43.5 °F 41.0 °F 86% 30.18 in 10.0 mi NE 3.5 mph - N/A   Clear
10:53 PM 45.0 °F 42.6 °F 41.0 °F 86% 30.19 in 10.0 mi NE 4.6 mph - N/A   Clear
11:53 PM 43.0 °F 41.3 °F 39.9 °F 89% 30.20 in 10.0 mi ENE 3.5 mph - N/A   Clear